Concord, CA

7:02 AM PDT on July 24, 2017 (GMT -0700)
Buchanan

Weather History for KCCR - January, 2013

Change the Weather History Date:

Wednesday, January 2, 2013

  Actual Average Record
Temperature  
Mean Temperature 42 °F 47 °F  
Max Temperature 54 °F 55 °F 64 °F (2014)
Min Temperature 29 °F 39 °F 29 °F (2013)
Degree Days  
Heating Degree Days 23    
Month to date heating degree days 45  
Since 1 July heating degree days 946  
Cooling Degree Days 0    
Month to date cooling degree days 0  
Year to date cooling degree days 0  
Moisture  
Dew Point 30 °F    
Average Humidity 67    
Maximum Humidity 96    
Minimum Humidity 38    
Precipitation  
Precipitation 0.00 in - 0.47 in (2005)
Month to date precipitation 0.00  
Year to date precipitation 0.00  
Since 1 July precipitation 9.64  
Sea Level Pressure  
Sea Level Pressure 30.18 in    
Wind  
Wind Speed 3 mph (ENE)    
Max Wind Speed 12 mph    
Max Gust Speed 16 mph    
Visibility 10 miles    
Events Snow    
T = Trace of Precipitation, MM = Missing Value Source: NWS Daily Summary

Daily Weather History Graph

Daily Weather History Graph

Search for Another Location

Airport or City:

Trip Planner

Search our weather history database for the weather conditions in past years. The results will help you decide how hot, cold, wet, or windy it might be!

Date:

Astronomy

Jan. 02, 2013 Rise Set
Actual Time 7:24 AM PST 5:00 PM PST
Civil Twilight 6:55 AM PST 5:30 PM PST
Nautical Twilight 6:22 AM PST 6:02 PM PST
Astronomical Twilight 5:50 AM PST 6:34 PM PST
Moon 10:32 PM PST (1/2) 10:14 AM PST (1/2)
Length of Visible Light 10h 34m
Length of Day
9h 36m
Waning Gibbous, 74% of the Moon is Illuminated
Jan 2
Waning Gibbous
Jan 4
Last Quarter
Jan 11
New
Jan 18
First Quarter
Jan 26
Full

Hourly Weather History & Observations

Time (PST) Temp. Windchill Dew Point Humidity Pressure Visibility Wind Dir Wind Speed Gust Speed Precip Events Conditions
12:53 AM 34.0 °F 29.8 °F 30.0 °F 85% 30.22 in 10.0 mi SSE 4.6 mph - N/A   Clear
1:53 AM 33.1 °F - 30.0 °F 89% 30.22 in 10.0 mi Calm Calm - N/A   Clear
2:53 AM 30.9 °F - 28.9 °F 92% 30.22 in 10.0 mi Calm Calm - N/A   Clear
4:53 AM 30.0 °F - 28.9 °F 96% 30.19 in 10.0 mi Calm Calm - N/A   Clear
5:53 AM 28.9 °F 23.9 °F 27.0 °F 92% 30.19 in 10.0 mi South 4.6 mph - N/A   Clear
6:53 AM 28.9 °F - 27.0 °F 92% 30.19 in 10.0 mi Calm Calm - N/A   Clear
7:53 AM 30.0 °F 25.2 °F 28.0 °F 92% 30.21 in 10.0 mi South 4.6 mph - N/A   Clear
8:53 AM 35.1 °F - 30.9 °F 85% 30.22 in 10.0 mi Calm Calm - N/A   Clear
9:53 AM 43.0 °F - 33.1 °F 68% 30.22 in 10.0 mi Calm Calm - N/A   Clear
10:53 AM 50.0 °F - 26.1 °F 39% 30.22 in 10.0 mi ENE 10.4 mph - N/A   Clear
11:53 AM 51.1 °F - 27.0 °F 39% 30.20 in 10.0 mi NNE 9.2 mph - N/A   Clear
12:53 PM 53.1 °F - 28.9 °F 40% 30.17 in 10.0 mi NNE 4.6 mph - N/A   Clear
1:53 PM 52.0 °F - 30.0 °F 43% 30.15 in 10.0 mi ENE 8.1 mph - N/A   Clear
2:53 PM 53.1 °F - 30.0 °F 41% 30.14 in 10.0 mi ENE 5.8 mph - N/A   Clear
3:53 PM 53.1 °F - 33.1 °F 47% 30.13 in 10.0 mi NNE 5.8 mph - N/A   Clear
4:53 PM 48.9 °F - 33.1 °F 54% 30.12 in 10.0 mi NNE 6.9 mph - N/A   Clear
5:53 PM 46.0 °F 43.9 °F 34.0 °F 63% 30.12 in 10.0 mi NNE 4.6 mph - N/A   Clear
6:53 PM 44.1 °F - 33.1 °F 65% 30.13 in 10.0 mi Calm Calm - N/A   Clear
8:53 PM 39.0 °F - 33.1 °F 79% 30.14 in 9.0 mi Calm Calm - 0.00 in   Unknown
9:53 PM 37.0 °F 34.5 °F 33.1 °F 86% 30.15 in 8.0 mi ESE 3.5 mph - 0.00 in Snow Light Snow
10:53 PM 34.0 °F - 32.0 °F 92% 30.16 in 8.0 mi Calm Calm - 0.00 in Snow Light Snow
11:53 PM 33.1 °F - 30.9 °F 92% 30.15 in 8.0 mi Calm Calm - 0.00 in Snow Light Snow